Date String (YYYY-MM-DD hh:mm:ss) UTC,Instrument flags,Ambient pressure (hPa),Sample flow (lpm),Bypass flow (lpm),Sample temperature (°C),Ambient temperature (°C),ASC tube jacket temperature (°C),LED temperature (°C),Box temperature (°C),Sample RH (%),Span deviation,Mass concentration (μg/m³),Mass concentration (μg/m³),Mass concentration (μg/m³)
DateTimeUTC,F1_M11,P_M11,Q1_M11,Q2_M11,T1_M11,T2_M11,T3_M11,T4_M11,T5_M11,U1_M11,ZSPAN_M11,X0_M11,X2_M11,X1_M11
2022-04-15 01:00:00,,0818.8,5.01,0.00,24.2,23.1,00.0,33.1,26.0,07.6,0000.0,0008.00,0003.56,0002.31
2022-04-15 01:01:00,,0818.9,4.99,0.00,24.2,23.1,00.0,33.1,25.9,07.5,0000.0,0007.52,0003.55,0002.31
2022-04-15 01:02:00,,0819.0,4.99,0.00,24.2,23.1,00.0,33.1,25.9,07.4,0000.0,0007.23,0003.51,0002.31
2022-04-15 01:03:00,,0819.0,4.99,0.00,24.2,23.1,00.0,33.1,25.8,07.3,0000.0,0007.37,0003.54,0002.32
2022-04-15 01:04:00,,0818.9,5.02,0.00,24.2,23.1,00.0,33.1,25.9,07.3,0000.0,0007.43,0003.54,0002.33
2022-04-15 01:05:00,,0819.0,5.00,0.00,24.2,23.1,00.0,33.1,25.9,07.3,0000.0,0007.57,0003.58,0002.35
2022-04-15 01:06:00,,0819.0,4.99,0.00,24.2,23.1,00.0,33.1,25.9,07.4,0000.0,0007.61,0003.57,0002.34
2022-04-15 01:07:00,,0819.0,4.99,0.00,24.2,23.1,00.0,33.1,25.9,07.3,0000.0,0007.55,0003.55,0002.34
2022-04-15 01:08:00,,0819.0,5.01,0.00,24.2,23.2,00.0,33.1,25.9,07.3,0000.0,0007.57,0003.56,0002.34
2022-04-15 01:09:00,,0818.9,5.00,0.00,24.2,23.1,00.0,33.1,25.9,07.4,0000.0,0007.67,0003.57,0002.32
2022-04-15 01:10:00,,0818.9,4.99,0.00,24.2,23.1,00.0,33.1,25.9,07.4,0000.0,0007.72,0003.58,0002.32
2022-04-15 01:11:00,,0818.9,5.01,0.00,24.2,23.1,00.0,33.1,25.9,07.4,0000.0,0007.65,0003.54,0002.32
2022-04-15 01:12:00,,0819.0,4.99,0.00,24.2,23.2,00.0,33.1,26.0,07.4,0000.0,0007.54,0003.53,0002.32
2022-04-15 01:13:00,,0819.0,5.00,0.00,24.2,23.2,00.0,33.1,25.9,07.5,0000.0,0007.87,0003.57,0002.32
2022-04-15 01:14:00,,0818.9,5.00,0.00,24.2,23.2,00.0,33.2,26.0,07.4,0000.0,0008.05,0003.59,0002.31
2022-04-15 01:15:00,,0818.9,5.02,0.00,24.2,23.2,00.0,33.2,26.0,07.3,0000.0,0008.54,0003.62,0002.32
2022-04-15 01:16:00,,0819.0,5.00,0.00,24.2,23.2,00.0,33.2,26.0,07.5,0000.0,0009.03,0003.58,0002.30
2022-04-15 01:17:00,,0819.0,4.99,0.00,24.2,23.2,00.0,33.2,25.9,07.5,0000.0,0009.36,0003.62,0002.31
2022-04-15 01:18:00,,0819.0,4.99,0.00,24.2,23.1,00.0,33.2,25.9,07.3,0000.0,0009.89,0003.66,0002.30
2022-04-15 01:19:00,,0819.0,5.02,0.00,24.2,23.1,00.0,33.2,26.0,07.4,0000.0,0009.96,0003.68,0002.30
2022-04-15 01:20:00,,0819.0,4.99,0.00,24.2,23.1,00.0,33.2,26.0,07.4,0000.0,0009.90,0003.66,0002.31
2022-04-15 01:21:00,,0819.1,5.00,0.00,24.2,23.1,00.0,33.2,26.0,07.4,0000.0,0009.90,0003.67,0002.30
2022-04-15 01:22:00,,0819.1,5.01,0.00,24.2,23.2,00.0,33.2,26.0,07.4,0000.0,0009.93,0003.67,0002.29
2022-04-15 01:23:00,,0819.1,4.99,0.00,24.2,23.2,00.0,33.2,26.0,07.3,0000.0,0009.79,0003.63,0002.28
2022-04-15 01:24:00,,0819.1,4.99,0.00,24.2,23.1,00.0,33.2,25.9,07.4,0000.0,0009.45,0003.58,0002.28
2022-04-15 01:25:00,,0819.0,5.01,0.00,24.2,23.1,00.0,33.2,25.9,07.3,0000.0,0009.64,0003.57,0002.27
2022-04-15 01:26:00,,0819.1,4.99,0.00,24.2,23.1,00.0,33.2,25.9,07.3,0000.0,0009.47,0003.57,0002.25
2022-04-15 01:27:00,,0819.0,4.99,0.00,24.2,23.2,00.0,33.2,26.0,07.3,0000.0,0008.94,0003.61,0002.27
2022-04-15 01:28:00,,0819.0,5.00,0.00,24.2,23.2,00.0,33.2,26.0,07.2,0000.0,0009.00,0003.53,0002.27
2022-04-15 01:29:00,,0819.0,5.01,0.00,24.2,23.1,00.0,33.2,25.9,07.2,0000.0,0008.59,0003.49,0002.25
2022-04-15 01:30:00,,0819.0,5.00,0.00,24.2,23.1,00.0,33.2,26.0,07.2,0000.0,0009.01,0003.51,0002.25
2022-04-15 01:31:00,,0819.0,5.00,0.00,24.2,23.1,00.0,33.2,26.0,07.2,0000.0,0009.32,0003.55,0002.26
2022-04-15 01:32:00,,0819.1,5.00,0.00,24.2,23.1,00.0,33.2,26.0,07.2,0000.0,0009.32,0003.55,0002.25
2022-04-15 01:33:00,,0819.0,5.01,0.00,24.2,23.1,00.0,33.2,26.0,07.2,0000.0,0009.91,0003.57,0002.24
2022-04-15 01:34:00,,0818.9,4.99,0.00,24.2,23.1,00.0,33.2,26.0,07.2,0000.0,0010.26,0003.63,0002.25
2022-04-15 01:35:00,,0819.0,4.99,0.00,24.2,23.2,00.0,33.2,25.9,07.1,0000.0,0010.58,0003.66,0002.25
2022-04-15 01:36:00,,0818.9,4.99,0.00,24.2,23.2,00.0,33.2,25.9,07.1,0000.0,0011.10,0003.65,0002.23
2022-04-15 01:37:00,,0818.9,5.02,0.00,24.2,23.1,00.0,33.2,25.9,07.2,0000.0,0011.50,0003.67,0002.24
2022-04-15 01:38:00,,0818.9,5.00,0.00,24.2,23.1,00.0,33.2,25.9,07.1,0000.0,0011.33,0003.65,0002.22
2022-04-15 01:39:00,,0818.9,4.99,0.00,24.2,23.1,00.0,33.2,25.9,07.2,0000.0,0010.86,0003.68,0002.24
2022-04-15 01:40:00,,0818.9,5.00,0.00,24.2,23.1,00.0,33.2,25.9,07.0,0000.0,0010.73,0003.68,0002.25
2022-04-15 01:41:00,,0818.9,5.01,0.00,24.2,23.1,00.0,33.2,26.0,06.9,0000.0,0010.15,0003.63,0002.26
2022-04-15 01:42:00,,0819.0,5.00,0.00,24.2,23.2,00.0,33.2,25.9,06.9,0000.0,0010.52,0003.62,0002.25
2022-04-15 01:43:00,,0819.0,4.99,0.00,24.2,23.2,00.0,33.2,25.8,06.9,0000.0,0010.55,0003.59,0002.25
2022-04-15 01:44:00,,0818.9,4.99,0.00,24.2,23.2,00.0,33.2,25.9,07.0,0000.0,0010.12,0003.56,0002.25
2022-04-15 01:45:00,,0818.9,5.00,0.00,24.2,23.2,00.0,33.2,25.9,07.0,0000.0,0009.78,0003.57,0002.26
2022-04-15 01:46:00,,0818.9,4.99,0.00,24.2,23.2,00.0,33.2,25.9,06.9,0000.0,0009.72,0003.56,0002.25
2022-04-15 01:47:00,,0819.0,4.99,0.00,24.2,23.2,00.0,33.2,25.9,06.8,0000.0,0009.33,0003.56,0002.26
2022-04-15 01:48:00,,0819.0,5.00,0.00,24.2,23.1,00.0,33.2,25.9,06.9,0000.0,0008.21,0003.54,0002.28
2022-04-15 01:49:00,,0819.1,5.00,0.00,24.2,23.0,00.0,33.2,25.9,06.9,0000.0,0008.16,0003.53,0002.29
2022-04-15 01:50:00,,0819.1,5.00,0.00,24.2,23.0,00.0,33.2,25.9,06.9,0000.0,0008.05,0003.48,0002.27
2022-04-15 01:51:00,,0819.1,5.01,0.00,24.2,23.1,00.0,33.2,25.9,06.9,0000.0,0008.71,0003.51,0002.26
2022-04-15 01:52:00,,0819.1,4.99,0.00,24.2,23.1,00.0,33.2,25.9,06.9,0000.0,0009.29,0003.53,0002.25
2022-04-15 01:53:00,,0819.1,5.00,0.00,24.2,23.1,00.0,33.2,25.9,06.9,0000.0,0009.12,0003.53,0002.24
2022-04-15 01:54:00,,0819.1,4.98,0.00,24.2,23.1,00.0,33.1,25.9,06.9,0000.0,0008.70,0003.50,0002.23
2022-04-15 01:55:00,,0819.0,5.00,0.00,24.1,23.1,00.0,33.1,25.9,06.9,0000.0,0009.23,0003.55,0002.22
2022-04-15 01:56:00,,0819.1,5.02,0.00,24.2,23.1,00.0,33.1,25.9,06.9,0000.0,0009.17,0003.54,0002.22
2022-04-15 01:57:00,,0819.0,5.00,0.00,24.1,23.1,00.0,33.1,25.9,06.9,0000.0,0008.96,0003.49,0002.21
2022-04-15 01:58:00,,0819.0,4.99,0.00,24.1,23.1,00.0,33.1,25.9,06.9,0000.0,0008.95,0003.48,0002.20
2022-04-15 01:59:00,,0819.0,5.00,0.00,24.1,23.1,00.0,33.1,25.9,06.8,0000.0,0009.00,0003.46,0002.19
